STARLINK-5706 (55488 NORAD) Tracking and Keplerian Element Data

This shows tracking and keplerian element data for the satellite.

Feedback or suggestion? Click here.




ElementValue
Catalog55488
NameSTARLINK-5706
Epoch Orbit823
Epoch Day85.25001157
Epoch Year2023
RAAN84.1701
Inclination43
Eccentricity0.0001286
Argument of Perigee283.7801
Mean Anonmoly316.9394
Mean Motion15.02510636
Decay Rate2.364E-05
L11 55488U 23015AR 23085.25001157 .00002364 00000+0 19010-3 0 9998
L22 55488 43.0000 84.1701 0001286 283.7801 316.9394 15.02510636 8233



Live tracking and technical data element details for STARLINK-5706 (NORAD 55488). STARLINK-5706 can be tracked NOW for your location showing map with azimuth and elevation plus other details from your city location.







IsCatalogInMostPopularTable: catalog: 55488, numindb: -1

Insert: records affected: 1


GetName: 55488 STARLINK-5706

Hit Count: inserted at: Tue, 28 Mar 2023 02:37:52 GMT